Change the Weather History Date:

Sunday, November 13, 2011

  Actual Average Record
Temperature  
Mean Temperature 52 °F -  
Max Temperature 60 °F 63 °F 73 °F (2007)
Min Temperature 44 °F 43 °F 33 °F (1999)
Degree Days  
Heating Degree Days 13    
Growing Degree Days 2 (Base 50)    
Moisture  
Dew Point 47 °F    
Average Humidity 80    
Maximum Humidity 94    
Minimum Humidity 59    
Precipitation  
Precipitation 0.00 in - - ()
Sea Level Pressure  
Sea Level Pressure 29.90 in    
Wind  
Wind Speed 7 mph ()    
Max Wind Speed 12 mph    
Max Gust Speed -    
Visibility 6.2 miles    
Events      
Averages and records for this station are not official NWS values.
T = Trace of Precipitation, MM = Missing Value Source: Averaged Metar Reports

Daily Weather History Graph

Daily Weather History Graph

Search for Another Location

Airport or City:

Trip Planner

Search our weather history database for the weather conditions in past years. The results will help you decide how hot, cold, wet, or windy it might be!

Date:

Astronomy

Nov. 13, 2011 Rise Set
Actual Time 5:58 AM NZDT 8:30 PM NZDT
Civil Twilight 5:25 AM NZDT 9:02 PM NZDT
Nautical Twilight 4:45 AM NZDT 9:43 PM NZDT
Astronomical Twilight 3:59 AM NZDT 10:29 PM NZDT
Moon 10:46 PM NZDT (11/13) 7:08 AM NZDT (11/13)
Length of Visible Light 15h 37m
Length of Day
14h 32m
Waning Gibbous, 96% of the Moon is Illuminated
Nov 13
Waning Gibbous
Nov 19
Last Quarter
Nov 25
New
Dec 2
First Quarter
Dec 11
Full

Hourly Weather History & Observations

Time (NZDT) Temp. Windchill Dew Point Humidity Pressure Visibility Wind Dir Wind Speed Gust Speed Precip Events Conditions
12:00 AM 50.0 °F - 44.6 °F 82% 29.92 in 6.2 mi SW 11.5 mph - N/A   Mostly Cloudy
1:00 AM 50.0 °F - 44.6 °F 82% 29.92 in 6.2 mi SW 10.4 mph - N/A   Mostly Cloudy
2:00 AM 48.2 °F - 44.6 °F 87% 29.92 in 6.2 mi WSW 9.2 mph - N/A   Mostly Cloudy
3:00 AM 48.2 °F - 44.6 °F 87% 29.92 in 6.2 mi SW 9.2 mph - N/A   Mostly Cloudy
4:00 AM 48.2 °F - 44.6 °F 87% 29.92 in 6.2 mi West 5.8 mph - N/A   Mostly Cloudy
5:00 AM 46.4 °F 42.9 °F 42.8 °F 87% 29.89 in 6.2 mi WSW 6.9 mph - N/A   Scattered Clouds
6:00 AM 44.6 °F 42.2 °F 42.8 °F 93% 29.89 in 6.2 mi West 4.6 mph - N/A   Scattered Clouds
7:00 AM 44.6 °F 40.7 °F 42.8 °F 93% 29.89 in 6.2 mi West 6.9 mph - N/A   Mostly Cloudy
8:00 AM 48.2 °F - 44.6 °F 87% 29.89 in 6.2 mi West 5.8 mph - N/A   Mostly Cloudy
9:00 AM 51.8 °F - 48.2 °F 88% 29.89 in 6.2 mi SSW 10.4 mph - N/A   Scattered Clouds
10:00 AM 53.6 °F - 48.2 °F 82% 29.89 in 6.2 mi South 8.1 mph - N/A   Partly Cloudy
11:00 AM 57.2 °F - 46.4 °F 67% 29.89 in 6.2 mi South 8.1 mph - N/A   Partly Cloudy
12:00 PM 59.0 °F - 46.4 °F 63% 29.89 in 6.2 mi South 6.9 mph - N/A   Partly Cloudy
1:00 PM 60.8 °F - 50.0 °F 68% 29.86 in 6.2 mi South 6.9 mph - N/A   Partly Cloudy
2:00 PM 60.8 °F - 50.0 °F 68% 29.86 in 6.2 mi SSW 10.4 mph - N/A   Partly Cloudy
3:00 PM 60.8 °F - 48.2 °F 63% 29.89 in 6.2 mi South 11.5 mph - N/A   Scattered Clouds
4:00 PM 60.8 °F - 46.4 °F 59% 29.86 in 6.2 mi SSW 10.4 mph - N/A   Scattered Clouds
5:00 PM 60.8 °F - 46.4 °F 59% 29.89 in 6.2 mi SSW 5.8 mph - N/A   Scattered Clouds
6:00 PM 60.8 °F - 46.4 °F 59% 29.89 in 6.2 mi SSW 9.2 mph - N/A   Scattered Clouds
7:00 PM 57.2 °F - 50.0 °F 77% 29.89 in 6.2 mi NE 8.1 mph - N/A   Scattered Clouds
8:00 PM 51.8 °F - 50.0 °F 94% 29.92 in 6.2 mi NNE 6.9 mph - N/A   Scattered Clouds
9:00 PM 51.8 °F - 50.0 °F 94% 29.95 in 6.2 mi NNE 2.3 mph - N/A   Mostly Cloudy
10:00 PM 51.8 °F - 48.2 °F 88% 29.98 in 6.2 mi WSW 1.2 mph - N/A   Mostly Cloudy
11:00 PM 50.0 °F - 48.2 °F 94% 29.98 in 6.2 mi WNW 2.3 mph - N/A   Partly Cloudy